Вернуться в каталог

STARS-X

АктивенНаукаSSO
NORAD 69502·PAYLOAD·🇯🇵 Japan

Запущен Jun 12, 2026 с Tanegashima Space Center

Loading…

Ближайшие Пролёты (ближайшие 24 часа)

TLE

СвежийSource: Space-Track

Эпоха: Sep 14, 2026, 14:16 UTC

1 69502U 26132A   26257.59477877  .00001752  00000-0  14837-3 0  9993
2 69502  97.6827 320.0645 0011557 338.6074  21.4665 14.99254194 14178

Отслеживайте STARS-X в реальном времени с AllMySat

Download on the App Store